Location: Civry
(47.2902°N, 4.6156°E)
Time: 07:12:09
(UTC+00:00)

Daily predictions for brighter satellites

Satellite Brightness Start Highest point End
(mag) Time Altitude Azimuth Time Altitude Azimuth Time Altitude Azimuth
STARLINK-60 3.0 18:46:33 10° SW 18:49:48 67° SSE 18:53:05 10° ENE
Cosmos 2369 Rocket 3.4 18:44:53 10° NW 18:50:18 47° WSW 18:55:40 10° S
ARGOS Delta rocket 4.2 18:46:45 10° SSE 18:52:07 84° ENE 18:57:39 10° N
IRIDIUM 114 4.3 18:49:43 10° N 18:54:58 79° E 19:00:12 10° S
Cosmos 2058 Rocket 3.9 18:55:22 10° SSE 18:59:23 32° E 19:03:23 10° NNE
STARLINK-1202 4.5 18:56:19 10° WNW 19:00:18 43° NNE 19:04:16 10° E
Cosmos 1726 Rocket 3.7 18:57:40 10° S 19:01:56 51° E 19:06:17 10° NNE
STARLINK-1228 2.7 18:59:46 10° WNW 19:02:43 74° NNE 19:05:31 11° ESE
SL-08 RB Rocket 4.1 18:58:24 10° SE 19:02:46 45° ENE 19:07:11 10° N
Cosmos 1461 3.2 18:58:20 10° NNW 19:02:52 71° NE 19:07:31 10° SE
IRIDIUM 103 4.4 18:58:54 10° N 19:04:10 87° W 19:09:23 10° S
Cosmos 921 Rocket 3.5 19:01:29 10° N 19:05:27 39° ENE 19:09:24 10° SE
Cosmos 1703 3.2 19:02:03 10° N 19:06:01 73° ENE 19:09:58 10° SSE
SL-4 R/B 1.8 19:02:54 10° WSW 19:06:17 70° NNW 19:09:43 10° ENE
Cosmos 1726 2.5 19:02:54 10° SSW 19:06:37 71° W 19:10:21 10° N
Cosmos 1437 3.8 19:05:19 10° NNW 19:08:14 45° W 19:11:08 10° S
Cosmos 2184 Rocket 4.1 19:02:12 10° N 19:08:32 88° W 19:14:44 10° S
Meteor 2-10 4.4 19:03:01 10° SSW 19:08:33 81° WNW 19:14:16 10° N
CZ-4C R/B 4.3 19:03:30 10° NNW 19:08:37 23° NNE 19:14:24 10° ENE
ADEOS Rocket 4.1 19:03:01 10° N 19:09:04 49° WNW 19:14:36 10° SW
Cosmos 1825 Rocket 3.7 19:04:58 10° NNW 19:09:22 79° W 19:13:42 10° S
Cosmos 407 Rocket 3.5 19:04:55 10° S 19:09:57 59° ESE 19:15:00 10° NNE
STARLINK-1246 4.4 19:06:16 10° WNW 19:10:18 46° NNE 19:14:15 10° E
Cosmos 1908 3.2 19:06:33 10° S 19:10:22 62° E 19:14:14 10° NNE
Cosmos 1340 Rocket 3.2 19:07:02 10° SSE 19:10:50 41° E 19:14:38 10° NNE
FREGAT/IRIS 2.2 19:08:47 10° SSE 19:11:30 85° ENE 19:14:14 10° N
STARLINK-1201 3.2 19:08:31 10° WNW 19:11:46 61° NNE 19:14:33 13° ESE
Cosmos 1656 Rocket 4.2 19:06:36 10° NNW 19:12:12 63° WSW 19:17:41 10° SSE
Cosmos 1328 3.8 19:08:42 10° N 19:12:44 83° E 19:16:44 10° S
Cosmos 2228 3.0 19:08:31 10° S 19:12:50 79° E 19:17:12 10° NNE
STARLINK-1224 4.3 19:11:18 10° WNW 19:15:19 47° NNE 19:19:04 12° E
Cosmos 1943 3.9 19:11:22 10° SW 19:16:57 59° WNW 19:22:36 10° NNE
STARLINK-1203 4.2 19:13:26 10° WNW 19:17:33 50° NNE 19:21:13 13° E
MOS 1 4.3 19:13:08 10° SSE 19:18:48 89° ENE 19:24:30 10° NNW
MetOp-A 4.4 19:14:31 10° SE 19:19:42 52° ENE 19:24:54 10° N
STARLINK-1225 4.2 19:16:17 10° WNW 19:20:20 49° NNE 19:23:51 13° E
Resurs 01 Rocket 2.6 19:17:44 12° SE 19:21:08 30° ENE 19:25:01 10° N
STARLINK-52 3.0 19:19:28 10° SW 19:22:36 54° SE 19:25:45 10° ENE
MOS 1 Rocket 4.2 19:17:48 10° NNE 19:22:48 36° E 19:27:46 10° SSE
CZ-2C R/B 3.2 19:19:27 10° NNE 19:24:07 33° E 19:28:47 10° SSE
Nadezhda 1 Rocket 4.0 19:18:46 10° S 19:25:09 78° E 19:31:30 10° N
STARLINK-1230 4.2 19:21:15 10° WNW 19:25:19 51° NNE 19:28:37 15° E
BREEZE M DEB (TANK) 3.5 19:22:48 10° SSW 19:25:34 29° SE 19:31:39 10° ENE
SPOT 3 Rocket 3.6 19:23:37 10° SSE 19:28:46 65° ENE 19:33:55 10° N
Cosmos 1023 Rocket 4.4 19:23:47 10° S 19:28:54 66° ESE 19:33:59 10° NNE
Cosmos 1697 Rocket 4.5 19:25:10 10° N 19:29:00 18° NE 19:32:44 10° E
SL-24 R/B - RUBIN 2 4.3 19:23:42 10° SSW 19:29:20 84° SE 19:35:43 10° NE
ARGOS 3.3 19:24:51 10° S 19:30:13 77° WSW 19:35:38 10° NNW
STARLINK-1243 4.1 19:26:13 10° WNW 19:30:18 53° NNE 19:33:24 16° E
FALCON 9 DEB 3.1 19:27:27 10° SW 19:30:55 66° SSE 19:34:24 10° ENE
Cosmos 2154 Rocket 4.1 19:25:09 10° N 19:31:33 89° E 19:37:53 10° S
Cosmos 1953 Rocket 4.0 19:27:58 10° NNW 19:32:27 68° W 19:36:54 10° S
Cosmos 1606 Rocket 4.1 19:28:10 10° SSW 19:32:34 63° WNW 19:37:01 10° N
GEOS 3 Rocket 4.5 19:28:39 10° SSE 19:33:34 47° WSW 19:38:37 10° NW
NOSS 3-4 (A) 4.2 19:27:29 10° NW 19:34:26 67° SW 19:42:05 10° SSE
NOSS 3-4 (C) 4.2 19:27:36 10° NW 19:34:33 67° SW 19:42:12 10° SSE
Cosmos 1954 Rocket 4.2 19:30:11 10° S 19:35:12 49° ESE 19:40:13 10° NNE
STARLINK-1236 4.0 19:31:12 10° WNW 19:35:18 55° NNE 19:38:11 18° E
Cosmos 2181 Rocket 4.5 19:29:53 10° SSE 19:35:33 38° E 19:41:10 10° NNE
USA 186 2.9 19:32:38 10° S 19:35:47 44° W 19:38:48 10° NNW
STARLINK-67 3.8 19:35:51 10° WNW 19:38:10 30° SW 19:39:24 19° S
Meteor 1-11 4.5 19:36:53 10° NNW 19:42:38 74° W 19:48:16 10° S
Cosmos 2366 rocket 4.5 19:38:31 10° N 19:44:17 40° ENE 19:48:11 19° SE
Cosmos 1076 Rocket 4.4 19:40:52 10° N 19:44:41 30° ENE 19:46:20 23° ESE
STARLINK-1269 3.9 19:41:09 10° WNW 19:45:17 61° NNE 19:47:44 23° E
Cosmos 1763 Rocket 4.4 19:44:20 10° N 19:49:02 33° ENE 19:51:29 22° ESE
STARLINK-1200 3.8 19:46:08 10° WNW 19:50:16 64° NNE 19:52:31 25° E
STARLINK-1234 3.6 19:51:44 10° WNW 19:54:44 44° SW 19:55:47 31° SSE
STARLINK-1209 3.7 19:52:13 10° WNW 19:55:12 42° SW 19:56:15 29° SSE
STARLINK-1192 3.7 19:51:07 10° WNW 19:55:15 68° NNE 19:57:18 28° E
Cosmos 1455 4.4 19:56:32 13° ENE 19:56:32 13° ENE 19:57:23 10° NE
STARLINK-1233 3.1 19:52:33 10° WNW 19:55:39 59° SSW 19:56:38 37° SSE
STARLINK-1212 3.1 19:53:01 10° WNW 19:56:07 59° SSW 19:57:04 37° SSE
STARLINK-1105 3.2 19:53:27 10° WNW 19:56:33 58° SW 19:57:31 37° SSE
STARLINK-1206 3.1 19:53:56 10° WNW 19:57:00 57° SSW 19:57:55 38° SSE
SeaSat 1 4.3 19:52:50 10° NNE 19:57:16 34° NW 20:01:39 10° WSW
STARLINK-1247 3.2 19:54:23 10° WNW 19:57:28 57° SW 19:58:22 38° SSE
STARLINK-1227 3.2 19:54:47 10° WNW 19:57:53 57° SSW 19:58:47 38° SSE
Iridium 4 Rocket 3.8 19:54:31 10° NNE 19:58:16 31° E 19:59:06 28° ESE
STARLINK-1218 3.2 19:55:18 10° WNW 19:58:22 56° SW 19:59:13 39° SSE
STARLINK-1226 3.2 19:55:44 10° WNW 19:58:49 55° SSW 19:59:40 39° SSE
Cosmos 1980 Rocket 4.1 19:55:29 10° N 19:59:09 17° NE 20:02:02 12° ENE
STARLINK-1254 3.2 19:56:09 10° WNW 19:59:15 55° SW 20:00:06 39° SSE
STARLINK-1215 3.2 19:56:39 10° WNW 19:59:43 54° SW 20:00:32 39° SSE
STARLINK-1231 3.2 19:57:06 10° WNW 20:00:10 54° SW 20:00:58 39° SSE
USA 234 3.9 19:54:40 10° ENE 20:00:18 30° SE 20:05:55 10° S
STARLINK-1244 3.7 19:56:11 10° WNW 20:00:20 72° NNE 20:02:10 32° ESE
Cosmos 1174 4.4 19:56:19 10° NNW 20:00:21 55° NE 20:02:38 29° ESE
STARLINK-1232 3.3 19:58:01 10° WNW 20:01:04 53° SW 20:01:50 40° SSE
STARLINK-1217 3.3 19:58:27 10° WNW 20:01:31 52° SW 20:02:16 40° SSE
Cosmos 1892 3.5 19:58:04 10° N 20:01:37 32° ENE 20:02:13 31° E
Abrixas rocket 2.6 19:58:51 10° W 20:01:41 41° SSW 20:02:07 38° S
STARLINK-1208 3.3 19:58:52 10° WNW 20:01:57 52° SW 20:02:43 40° SSE
STARLINK-1229 3.3 19:59:21 10° WNW 20:02:24 51° SW 20:03:07 40° SSE
STARLINK-1271 3.3 19:59:49 10° WNW 20:02:52 51° SW 20:03:34 40° S
STARLINK-1270 3.3 20:00:16 10° WNW 20:03:19 50° SW 20:04:00 40° S
STARLINK-1154 3.3 20:00:43 10° WNW 20:03:46 50° SW 20:04:26 41° S
H-2A R/B 3.7 19:59:16 10° SSW 20:03:54 33° W 20:08:27 10° NNW
STARLINK-1197 3.4 20:01:37 10° WNW 20:04:40 49° SW 20:05:18 41° S
ATLAS 5 CENTAUR R/B 2.2 20:00:36 10° SW 20:04:44 57° NW 20:09:27 10° NE
STARLINK-1189 3.4 20:02:03 10° WNW 20:05:06 49° SW 20:05:43 41° S
STARLINK-1138 3.6 20:01:04 10° WNW 20:05:14 76° NNE 20:06:52 35° ESE
STARLINK-1198 3.4 20:02:32 10° WNW 20:05:34 48° SW 20:06:10 41° S
STARLINK-1188 3.4 20:02:58 10° WNW 20:05:59 48° SW 20:06:35 41° S
Cosmos 1825 4.1 20:03:38 10° NNE 20:05:39 16° ENE 20:05:39 16° ENE
ATLAS 2AS CENTAUR R/B 3.8 19:59:26 10° NW 20:06:21 41° WSW 20:12:43 10° S
STARLINK-1235 3.8 20:03:41 10° WNW 20:06:39 38° SW 20:07:18 33° S
STARLINK-1187 3.6 20:04:04 10° WNW 20:07:05 42° SW 20:07:42 37° S
STARLINK-1199 3.4 20:04:55 10° WNW 20:07:58 46° SW 20:08:31 41° S
STARLINK-1191 3.4 20:05:22 10° WNW 20:08:24 46° SW 20:08:56 41° S
STARLINK-1210 3.5 20:05:50 10° WNW 20:08:52 45° SW 20:09:23 41° S
STARLINK-1221 3.5 20:06:17 10° WNW 20:09:19 45° SW 20:09:49 41° S
COSMOS 2455 3.2 20:03:40 10° NW 20:09:38 62° WSW 20:13:57 19° SSE
STARLINK-1219 3.5 20:06:44 10° WNW 20:09:46 45° SW 20:10:15 40° S
STARLINK-1222 3.5 20:07:11 10° WNW 20:10:12 44° SW 20:10:40 40° S
STARLINK-1143 3.6 20:06:03 10° WNW 20:10:13 80° NNE 20:11:39 40° ESE
STARLINK-1211 3.5 20:07:40 10° WNW 20:10:40 44° SW 20:11:07 40° S
STARLINK-1214 3.5 20:08:05 10° WNW 20:11:06 43° SW 20:11:33 40° S
STARLINK-1245 3.5 20:08:34 10° WNW 20:11:34 43° SW 20:11:57 40° SSW
STARLINK-1238 3.5 20:08:59 10° WNW 20:12:00 43° SW 20:12:25 40° SSW
Cosmos 1140 Rocket 4.1 20:07:00 10° SW 20:12:06 57° WNW 20:17:12 10° NNE
STARLINK-1205 3.5 20:09:56 10° WNW 20:12:55 42° SW 20:13:16 40° SSW
STARLINK-1204 3.6 20:10:24 10° WNW 20:13:22 41° SW 20:13:42 40° SSW
ERBS 2.2 20:10:25 10° NW 20:13:49 72° NE 20:14:20 58° E
STARLINK-1241 3.5 20:11:04 10° WNW 20:15:14 85° NNE 20:16:28 45° ESE
STARLINK-29 3.6 20:15:12 10° W 20:18:21 53° NNW 20:19:44 28° NE
STARLINK-1239 3.5 20:16:02 10° WNW 20:20:12 90° N 20:21:14 50° ESE
IGS 5A 4.0 20:20:27 38° E 20:20:56 40° ENE 20:24:50 10° N
SAR-Lupe-2 3.5 20:17:37 10° NNE 20:21:10 58° ESE 20:21:14 58° ESE
ATLAS CENTAUR R/B 2.8 20:18:19 10° NNW 20:21:26 22° NE 20:22:10 21° NE
Cosmos 1300 3.2 20:18:33 10° SSW 20:22:18 58° W 20:26:06 10° N
Resurs 1-3 4.4 20:18:55 15° S 20:22:24 48° W 20:26:40 10° NNW
Spot 2 Rocket 3.5 20:22:15 36° SE 20:24:15 66° ENE 20:29:20 10° N
STARLINK-1240 3.5 20:21:00 10° WNW 20:25:11 85° SSW 20:26:01 56° SE
STARLINK-60 4.5 20:23:17 10° W 20:26:20 35° NNW 20:27:47 23° NE
Cosmos 1850 Rocket 4.0 20:24:21 26° S 20:27:08 56° ESE 20:32:12 10° NNE
Cosmos 841 Rocket 4.2 20:23:20 10° N 20:28:19 39° ENE 20:29:32 34° E
In-Cosmos 22 Rocket 4.3 20:23:40 10° NNW 20:29:33 88° W 20:32:45 28° S
STARLINK-1216 3.5 20:25:58 10° WNW 20:30:08 80° SSW 20:30:47 61° SE
Terra 3.1 20:29:53 24° ENE 20:30:14 24° ENE 20:34:04 10° N
Cosmos 2082 Rocket 4.1 20:34:09 13° ENE 20:34:09 13° ENE 20:35:12 10° ENE
SPOT 5 3.6 20:31:40 29° ENE 20:31:43 29° ENE 20:35:28 10° N
Meteor 2-10 Rocket 4.0 20:33:52 40° ESE 20:34:12 41° E 20:39:16 10° NNE
SL-08 R/B 4.5 20:28:18 10° N 20:34:24 64° ENE 20:36:45 38° SE
MetOp-B 4.1 20:32:15 34° SSE 20:34:41 89° W 20:40:05 10° NNW
STARLINK-1237 3.5 20:30:57 10° WNW 20:35:06 75° SSW 20:35:33 66° SSE
Cosmos 1833 Rocket 3.6 20:39:02 29° E 20:39:02 29° E 20:42:41 10° NE
CARTOSAT-1 4.3 20:39:31 37° ENE 20:39:31 37° ENE 20:43:25 10° N
STARLINK-1202 3.5 20:35:57 10° WNW 20:40:05 70° SSW 20:40:21 67° S
Cosmos 468 Rocket 3.9 20:35:45 10° NNW 20:40:56 83° WSW 20:42:30 46° SSE
SL-4 R/B 2.7 20:42:56 10° WNW 20:46:10 38° N 20:46:33 37° NNE
ERS-1 Rocket 3.1 20:47:01 51° E 20:47:38 55° ENE 20:52:33 10° N
Cosmos 1408 3.2 20:44:01 10° N 20:46:55 48° NNE 20:46:55 48° NNE
STARLINK-1246 3.8 20:45:55 10° WNW 20:49:54 60° SW 20:49:54 60° SW
RESURS DK-1 2.4 20:46:14 10° NNW 20:50:15 65° NE 20:50:15 65° NE
Cosmos 1766 Rocket 4.1 20:48:54 10° N 20:52:50 47° ENE 20:52:50 47° ENE
BREEZE M DEB (TANK) 2.8 20:46:40 10° WSW 20:53:16 78° NNW 20:53:26 76° NNE
Cosmos 1570 Rocket 4.0 20:48:16 10° NNW 20:53:39 74° ENE 20:54:32 60° SE
Okean 3 Rocket 3.7 20:50:25 10° N 20:54:34 59° ENE 20:54:34 59° ENE
STARLINK-1224 4.0 20:50:56 10° WNW 20:54:43 54° SW 20:54:43 54° SW
Meteor 2-12 Rocket 4.4 20:49:00 10° NNW 20:55:07 80° W 20:57:31 39° S
Cosmos 2058 3.7 20:52:35 10° NNW 20:56:33 48° W 20:57:24 41° SW
STARLINK-1203 4.2 20:53:19 10° WNW 20:57:04 49° SW 20:57:04 49° SW
COSMOS 2406 3.1 20:54:52 34° SSW 20:57:24 75° ESE 21:03:08 10° NNE
Resurs 01 Rocket 3.2 20:55:17 19° SW 20:57:35 30° W 21:01:31 10° NNW
CZ-4C R/B 3.3 20:52:00 10° NW 20:58:46 51° NE 21:01:49 35° E
STARLINK-1225 4.2 20:55:57 10° WNW 20:59:30 48° WSW 20:59:30 48° WSW
CZ-2C R/B 4.0 20:59:43 10° N 21:04:27 37° WNW 21:09:12 10° SW
STARLINK-1230 4.4 21:00:55 10° WNW 21:04:16 43° WSW 21:04:16 43° WSW
Cosmos 2151 3.1 21:03:49 10° N 21:07:34 70° N 21:07:34 70° N
Cosmos 1697 Rocket 2.5 21:08:14 10° NNW 21:13:57 78° ENE 21:14:29 71° ESE
Cosmos 2369 3.5 21:08:23 10° NNW 21:14:03 77° ENE 21:14:33 71° ESE
Landsat 7 4.5 21:25:10 45° WSW 21:25:36 46° W 21:30:13 10° NNW
Cosmos 1455 3.6 21:31:25 37° NW 21:31:25 37° NW 21:34:11 10° N
Cosmos 1763 Rocket 4.4 21:26:09 10° NW 21:30:53 37° WSW 21:31:31 36° WSW
SPOT 1/Viking Rocket 4.1 21:30:44 48° SW 21:31:22 51° W 21:36:29 10° NNW
Cosmos 1656 4.3 21:26:45 10° NW 21:32:10 46° WSW 21:32:50 44° SW
Cosmos 1408 Rocket 4.4 21:28:07 10° N 21:31:22 47° N 21:31:22 47° N
Cosmos 540 Rocket 3.6 21:29:25 10° NNW 21:34:20 69° W 21:34:20 69° W
SL-16 R/B 3.6 21:30:55 10° N 21:35:38 26° NE 21:36:11 25° NE
Cosmos 2360 Rocket 4.4 21:32:37 10° N 21:35:45 15° NE 21:37:32 13° ENE
Cosmos 2208 Rocket 4.3 21:30:59 10° NNW 21:36:03 60° WSW 21:36:03 60° WSW
Cosmos 1825 4.0 21:38:10 10° NNW 21:40:28 30° NW 21:40:28 30° NW
Cosmos 2322 Rocket 3.7 21:37:58 10° N 21:42:34 25° NE 21:43:04 24° NE
Nadezhda 3 Rocket 4.1 21:41:26 59° SW 21:42:38 74° W 21:48:56 10° N
USA 234 3.1 21:37:15 10° NE 21:43:50 90° NW 21:50:24 10° WSW
Cosmos 1980 Rocket 2.2 21:38:30 10° NNW 21:43:48 72° NNE 21:43:48 72° NNE
Cosmos-2242 4.2 21:45:30 39° WNW 21:45:30 39° WNW 21:49:20 10° N
Cosmos 1814 Rocket 4.4 21:41:07 10° NNW 21:46:08 57° W 21:46:08 57° W
Cosmos 1535 Rocket 4.3 21:40:46 10° N 21:46:59 81° E 21:47:00 81° E
ASTEX 1 3.9 21:50:00 55° N 21:50:00 55° N 21:53:52 10° N
ATLAS 5 CENTAUR R/B 4.5 21:47:26 10° WNW 21:50:30 17° NNW 21:53:52 10° NNE
Meteor 2-3 Rocket 3.8 21:49:59 10° NNW 21:55:21 75° NW 21:55:21 75° NW
ATLAS CENTAUR R/B 3.6 21:56:54 10° NW 21:58:21 21° NW 21:58:21 21° NW
Mayak 0.8 22:03:20 10° NNE 22:04:58 23° NNE 22:04:58 23° NNE
Terra 3.0 22:08:45 39° WNW 22:08:45 39° WNW 22:12:19 10° NNW
SPOT 5 4.4 22:10:53 26° WNW 22:10:53 26° WNW 22:13:37 10° NW
Cosmos 1934 Rocket 4.1 22:05:22 10° NNW 22:11:27 67° W 22:11:27 67° W
Cosmos 2082 Rocket 2.6 22:15:56 58° N 22:15:56 58° N 22:20:32 10° NNE
Cosmos 2278 4.3 22:09:46 10° NW 22:14:24 49° WNW 22:14:24 49° WNW
Cosmos 1833 Rocket 3.6 22:20:38 42° W 22:21:29 45° NW 22:26:54 10° NNE
Cosmos 1605 Rocket 4.2 22:23:52 10° NNW 22:29:21 67° NW 22:29:21 67° NW
Cosmos 2219 Rocket 4.5 22:29:44 10° N 22:32:52 15° NE 22:34:42 13° ENE
Cosmos 2344 4.3 22:26:07 10° NW 22:35:46 80° SW 22:38:35 59° SSE
CZ-4C R/B 3.3 22:40:32 10° NW 22:46:59 51° WSW 22:46:59 51° WSW
SL-16 R/B 3.4 23:14:35 10° NNW 23:18:02 37° NW 23:18:02 37° NW
Cosmos 2360 Rocket 3.2 23:15:23 10° NNW 23:19:17 43° N 23:19:17 43° N
USA 234 4.1 23:20:22 10° NE 23:26:31 45° NNW 23:32:40 10° W
Cosmos 2322 Rocket 3.4 23:21:32 10° NNW 23:24:52 36° NW 23:24:52 36° NW
Cosmos 1980 Rocket 4.4 23:23:46 10° WNW 23:25:34 16° WNW 23:25:34 16° WNW
Cosmos 2061 Rocket 4.5 23:25:57 10° N 23:30:49 57° N 23:30:49 57° N
MOS 1-B Rocket 4.4 23:35:01 10° NNE 23:40:21 67° NNE 23:40:21 67° NNE
Mayak 1.8 23:41:10 10° NW 23:41:32 11° NW 23:41:32 11° NW
Cosmos 2333 Rocket 3.4 23:37:56 10° NNW 23:42:26 37° NNE 23:42:26 37° NNE
Cosmos 2237 Rocket 4.5 23:39:54 10° N 23:43:48 18° NE 23:46:25 14° ENE
SL-16 R/B 4.2 23:48:42 22° ENE 23:50:17 24° ENE 23:55:05 10° N
